| time (UTC) | temp C | wind direction | speed KPH | gust KPH | rain 1hr cm | rain 24hr cm | rain mn cm | humidity % | barometer mb |
| 20260507105058 | 10 | 0 | 0.0 | 0.0 | 0.00 | 0.25 | 0.05 | 74 | 1017.9 |
| 20260507104056 | 10 | 0 | 0.0 | 0.0 | 0.00 | 0.30 | 0.05 | 76 | 1017.9 |
| 20260507103059 | 10 | 0 | 0.0 | 0.0 | 0.00 | 0.30 | 0.05 | 79 | 1018.0 |
| 20260507101056 | 10 | 0 | 0.0 | 0.0 | 0.00 | 0.33 | 0.05 | 81 | 1017.9 |
| 20260507100056 | 10 | 0 | 0.0 | 0.0 | 0.00 | 0.33 | 0.05 | 82 | 1017.7 |
| 20260507095055 | 10 | 0 | 0.0 | 0.0 | 0.00 | 0.33 | 0.05 | 84 | 1017.7 |
| 20260507093057 | 10 | 0 | 0.0 | 0.0 | 0.00 | 0.41 | 0.05 | 85 | 1017.6 |
| 20260507092058 | 9 | 0 | 0.0 | 0.0 | 0.00 | 0.41 | 0.05 | 84 | 1017.6 |
| 20260507090100 | 8 | 0 | 0.0 | 0.0 | 0.00 | 0.46 | 0.05 | 88 | 1017.5 |
| 20260507084056 | 8 | 0 | 0.0 | 0.0 | 0.00 | 0.56 | 0.05 | 89 | 1017.4 |
| 20260507083100 | 8 | 0 | 0.0 | 0.0 | 0.00 | 0.56 | 0.05 | 90 | 1017.4 |
| 20260507082053 | 8 | 0 | 0.0 | 0.0 | 0.00 | 0.56 | 0.05 | 93 | 1017.4 |
| 20260507073100 | 7 | 0 | 0.0 | 0.0 | 0.00 | 0.61 | 0.05 | 98 | 1017.2 |
| 20260507072059 | 7 | 0 | 0.0 | 0.0 | 0.00 | 0.61 | 0.05 | 98 | 1017.2 |
| 20260507071100 | 7 | 0 | 0.0 | 0.0 | 0.00 | 0.61 | 0.05 | 98 | 1017.1 |
| 20260507065055 | 6 | 0 | 0.0 | 0.0 | 0.00 | 0.61 | 0.05 | 99 | 1017.0 |
| 20260507062057 | 6 | 0 | 0.0 | 0.0 | 0.00 | 0.61 | 0.05 | 10 | 1016.8 |
| 20260507061057 | 6 | 0 | 0.0 | 0.0 | 0.00 | 0.61 | 0.05 | 10 | 1016.8 |
| 20260507054056 | 6 | 0 | 0.0 | 0.0 | 0.00 | 0.66 | 0.05 | 10 | 1016.5 |
| 20260507045056 | 5 | 0 | 0.0 | 0.0 | 0.00 | 0.76 | 0.05 | 10 | 1016.1 |
| 20260507044057 | 5 | 0 | 0.0 | 0.0 | 0.00 | 0.76 | 0.05 | 10 | 1016.0 |
| 20260507040059 | 5 | 0 | 0.0 | 0.0 | 0.00 | 0.76 | 0.05 | 10 | 1015.6 |
| 20260507030053 | 5 | 0 | 0.0 | 0.0 | 0.00 | 0.76 | 0.05 | 10 | 1015.3 |
| 20260507023056 | 5 | 0 | 0.0 | 0.0 | 0.00 | 0.81 | 0.05 | 10 | 1015.1 |
| 20260507021056 | 5 | 0 | 0.0 | 0.0 | 0.00 | 0.86 | 0.05 | 10 | 1015.0 |
| 20260507020056 | 5 | 0 | 0.0 | 0.0 | 0.00 | 0.97 | 0.05 | 10 | 1015.0 |
| 20260507014057 | 5 | 0 | 0.0 | 0.0 | 0.03 | 0.97 | 0.05 | 10 | 1014.9 |
| 20260507011058 | 5 | 0 | 0.0 | 0.0 | 0.03 | 0.97 | 0.05 | 10 | 1014.8 |
| 20260507010059 | 5 | 0 | 0.0 | 0.0 | 0.03 | 0.97 | 0.05 | 10 | 1014.8 |
| 20260507005056 | 6 | 0 | 0.0 | 0.0 | 0.03 | 1.09 | 0.05 | 10 | 1014.7 |
| 20260507004058 | 6 | 0 | 0.0 | 0.0 | 0.00 | 1.07 | 0.03 | 10 | 1014.7 |
| 20260507002057 | 6 | 0 | 0.0 | 0.0 | 0.00 | 1.07 | 0.03 | 10 | 1014.5 |
| 20260507001021 | 6 | 0 | 0.0 | 0.0 | 0.00 | 1.07 | 0.03 | 10 | 1014.5 |
| 20260507000031 | 6 | 0 | 0.0 | 0.0 | 0.00 | 1.07 | 0.03 | 10 | 1014.5 |
| 20260506235100 | 6 | 0 | 0.0 | 0.0 | 0.00 | 1.07 | 0.03 | 10 | 1014.4 |
| 20260506230100 | 6 | 0 | 0.0 | 0.0 | 0.03 | 1.12 | 0.03 | 10 | 1014.1 |
| 20260506220107 | 6 | 0 | 0.0 | 0.0 | 0.03 | 1.17 | 0.03 | 10 | 1013.6 |
| 20260506211103 | 6 | 0 | 0.0 | 0.0 | 0.00 | 1.19 | 1.14 | 10 | 1013.2 |
| 20260506210055 | 6 | 0 | 0.0 | 0.0 | 0.00 | 1.19 | 1.14 | 10 | 1013.2 |
| 20260506202100 | 6 | 0 | 0.0 | 0.0 | 0.00 | 1.32 | 1.14 | 10 | 1013.1 |
| 20260506201108 | 6 | 0 | 0.0 | 0.0 | 0.00 | 1.32 | 1.14 | 10 | 1013.0 |
| 20260506200059 | 6 | 0 | 0.0 | 0.0 | 0.03 | 1.35 | 1.14 | 10 | 1012.9 |
| 20260506193030 | 6 | 0 | 0.0 | 0.0 | 0.05 | 1.42 | 1.14 | 10 | 1012.7 |
| 20260506192103 | 6 | 0 | 0.0 | 0.0 | 0.05 | 1.45 | 1.14 | 10 | 1012.6 |
| 20260506191051 | 6 | 0 | 0.0 | 0.0 | 0.05 | 1.52 | 1.14 | 10 | 1012.6 |
| 20260506190100 | 6 | 0 | 0.0 | 0.0 | 0.05 | 1.52 | 1.14 | 10 | 1012.6 |
| 20260506175059 | 6 | 0 | 0.0 | 0.0 | 0.03 | 1.68 | 1.09 | 10 | 1012.0 |
| 20260506174056 | 6 | 0 | 0.0 | 0.0 | 0.03 | 1.68 | 1.09 | 10 | 1011.9 |
| 20260506173057 | 6 | 0 | 0.0 | 0.0 | 0.00 | 1.75 | 1.09 | 99 | 1011.8 |
| 20260506172102 | 6 | 0 | 0.0 | 0.0 | 0.00 | 1.75 | 1.09 | 99 | 1011.7 |
| 20260506171100 | 6 | 0 | 0.0 | 0.0 | 0.00 | 1.75 | 1.09 | 99 | 1011.6 |
| 20260506164100 | 6 | 0 | 0.0 | 0.0 | 0.00 | 1.83 | 1.09 | 99 | 1011.5 |
| 20260506163056 | 6 | 0 | 0.0 | 0.0 | 0.00 | 1.88 | 1.09 | 99 | 1011.5 |
| 20260506161056 | 6 | 0 | 0.0 | 0.0 | 0.00 | 1.96 | 1.09 | 99 | 1011.5 |
| 20260506155021 | 6 | 0 | 0.0 | 0.0 | 0.00 | 2.01 | 1.09 | 10 | 1011.4 |
| 20260506153056 | 6 | 0 | 0.0 | 0.0 | 0.00 | 2.03 | 1.09 | 10 | 1011.3 |
| 20260506145058 | 7 | 0 | 0.0 | 0.0 | 0.03 | 2.03 | 1.09 | 99 | 1011.2 |
| 20260506143054 | 7 | 0 | 0.0 | 0.0 | 0.08 | 2.03 | 1.09 | 98 | 1011.0 |
| 20260506142055 | 7 | 0 | 0.0 | 0.0 | 0.08 | 2.03 | 1.09 | 98 | 1011.1 |
| 20260506141055 | 7 | 0 | 0.0 | 0.0 | 0.10 | 2.03 | 1.09 | 99 | 1011.1 |
| 20260506140053 | 7 | 0 | 0.0 | 0.0 | 0.13 | 2.03 | 1.09 | 99 | 1011.1 |
| 20260506135057 | 7 | 0 | 0.0 | 0.0 | 0.13 | 2.03 | 1.09 | 99 | 1011.1 |
| 20260506134055 | 7 | 0 | 0.0 | 0.0 | 0.10 | 2.01 | 1.07 | 99 | 1011.0 |
| 20260506133055 | 7 | 0 | 0.0 | 0.0 | 0.08 | 1.98 | 1.04 | 99 | 1010.9 |
| 20260506131056 | 7 | 0 | 0.0 | 0.0 | 0.05 | 1.93 | 0.99 | 99 | 1010.6 |
| 20260506130058 | 7 | 0 | 0.0 | 0.0 | 0.03 | 1.93 | 0.99 | 99 | 1010.5 |
| 20260506123100 | 7 | 0 | 0.0 | 0.0 | 0.03 | 1.96 | 0.97 | 99 | 1010.3 |
| 20260506122058 | 7 | 0 | 0.0 | 0.0 | 0.03 | 1.96 | 0.97 | 99 | 1010.3 |
| 20260506115022 | 7 | 0 | 0.0 | 0.0 | 0.05 | 1.96 | 0.97 | 99 | 1010.1 |
| 20260506111057 | 7 | 0 | 0.0 | 0.0 | 0.10 | 1.93 | 0.94 | 99 | 1009.9 |